MSR287 HESN-HECA

Flight info

Callsign MSR287
Flight time 1h 7m
Altitude 36000
Route ASN V738 AST W8 CVO
Aircraft A21N/M-SDE3FGHIRWY/LB1

Departure

Time 2026-05-04 10:22
Airport Aswan International Airport (HESN)

Arrival

Time 2026-05-04 11:29
Airport Cairo International Airport (HECA)
Time Latitude Longitude Altitude Speed Heading
2026-05-04 10:02 23.96975 32.82247 645 ft 0 kts 170°
2026-05-04 10:16 23.96974 32.82247 645 ft 0 kts 170°
2026-05-04 10:16 23.96957 32.82250 644 ft 6 kts 179°
2026-05-04 10:17 23.96923 32.82200 645 ft 9 kts 259°
2026-05-04 10:17 23.96911 32.82114 646 ft 14 kts 259°
2026-05-04 10:19 23.95855 32.82244 651 ft 22 kts 171°
2026-05-04 10:19 23.95692 32.82272 652 ft 24 kts 171°
2026-05-04 10:19 23.95527 32.82301 655 ft 24 kts 171°
2026-05-04 10:19 23.95359 32.82330 658 ft 23 kts 171°
2026-05-04 10:20 23.95204 32.82358 661 ft 21 kts 171°
2026-05-04 10:20 23.95058 32.82383 661 ft 20 kts 171°
2026-05-04 10:20 23.94954 32.82373 660 ft 10 kts 230°
2026-05-04 10:20 23.94932 32.82300 660 ft 9 kts 269°
2026-05-04 10:21 23.94979 32.82251 661 ft 10 kts 341°
2026-05-04 10:21 23.95131 32.82223 662 ft 51 kts 352°
2026-05-04 10:21 23.95718 32.82122 652 ft 117 kts 350°
2026-05-04 10:21 23.96711 32.81946 654 ft 168 kts 349°
2026-05-04 10:22 23.99242 32.81440 1700 ft 184 kts 351°
2026-05-04 10:22 24.00451 32.81244 2550 ft 175 kts 351°
2026-05-04 10:22 24.01686 32.81032 2990 ft 185 kts 351°
2026-05-04 10:23 24.03031 32.80788 3299 ft 202 kts 351°
2026-05-04 10:23 24.04459 32.80402 3553 ft 223 kts 340°
2026-05-04 10:25 24.15288 32.73051 7596 ft 279 kts 323°
2026-05-04 10:25 24.16958 32.71873 8334 ft 281 kts 323°
2026-05-04 10:25 24.18670 32.70664 9082 ft 282 kts 322°
2026-05-04 10:25 24.20393 32.69448 9817 ft 284 kts 321°
2026-05-04 10:26 24.22039 32.68283 10472 ft 288 kts 321°
2026-05-04 10:26 24.23768 32.67054 10824 ft 303 kts 322°
2026-05-04 10:26 24.25667 32.65705 11142 ft 321 kts 322°
2026-05-04 10:26 24.27687 32.64394 11523 ft 337 kts 326°
2026-05-04 10:27 24.29869 32.63140 12227 ft 341 kts 327°
2026-05-04 10:27 24.32054 32.61902 12989 ft 342 kts 326°
2026-05-04 10:27 24.34153 32.60712 13678 ft 344 kts 327°
2026-05-04 10:27 24.36292 32.59495 14331 ft 347 kts 327°
2026-05-04 10:28 24.38444 32.58266 14969 ft 350 kts 327°
2026-05-04 10:28 24.40620 32.57025 15706 ft 349 kts 327°
2026-05-04 10:28 24.42746 32.55816 16700 ft 339 kts 327°
2026-05-04 10:28 24.44815 32.54637 17704 ft 329 kts 327°
2026-05-04 10:29 24.46779 32.53522 18678 ft 318 kts 327°
2026-05-04 10:29 24.48722 32.52419 19654 ft 307 kts 326°
2026-05-04 10:29 24.50573 32.51364 20437 ft 301 kts 325°
2026-05-04 10:29 24.52446 32.50288 20977 ft 303 kts 325°
2026-05-04 10:30 24.54313 32.49213 21443 ft 307 kts 325°
2026-05-04 10:30 24.56224 32.48114 21926 ft 310 kts 325°
2026-05-04 10:30 24.58143 32.47013 22384 ft 314 kts 325°
2026-05-04 10:30 24.60108 32.45886 22850 ft 317 kts 325°
2026-05-04 10:31 24.62169 32.44704 23324 ft 321 kts 325°
2026-05-04 10:31 24.64242 32.43517 23778 ft 324 kts 324°
2026-05-04 10:32 24.76868 32.36272 26239 ft 341 kts 324°
2026-05-04 10:33 24.79014 32.35038 26621 ft 343 kts 324°
2026-05-04 10:33 24.81212 32.33774 27029 ft 345 kts 323°
2026-05-04 10:33 24.83387 32.32521 27390 ft 348 kts 323°
2026-05-04 10:33 24.85594 32.31249 27775 ft 350 kts 323°
2026-05-04 10:34 24.87804 32.29976 28155 ft 352 kts 323°
2026-05-04 10:34 24.90023 32.28698 28502 ft 355 kts 323°
2026-05-04 10:34 24.92266 32.27404 28835 ft 358 kts 323°
2026-05-04 10:34 24.94515 32.26104 29155 ft 360 kts 323°
2026-05-04 10:35 24.96763 32.24807 29455 ft 363 kts 323°
2026-05-04 10:35 24.99055 32.23485 29772 ft 365 kts 323°
2026-05-04 10:35 25.01371 32.22146 30113 ft 367 kts 323°
2026-05-04 10:35 25.03706 32.20797 30448 ft 368 kts 323°
2026-05-04 10:36 25.06102 32.19412 30748 ft 371 kts 323°
2026-05-04 10:36 25.08453 32.18052 31052 ft 372 kts 322°
2026-05-04 10:36 25.10862 32.16660 31372 ft 373 kts 322°
2026-05-04 10:36 25.13192 32.15310 31648 ft 375 kts 322°
2026-05-04 10:37 25.15510 32.13966 31837 ft 379 kts 322°
2026-05-04 10:37 25.17856 32.12603 31964 ft 384 kts 323°
2026-05-04 10:37 25.20241 32.11218 32088 ft 389 kts 323°
2026-05-04 10:37 25.22638 32.09826 32207 ft 394 kts 323°
2026-05-04 10:39 25.37790 32.01027 32979 ft 417 kts 323°
2026-05-04 10:39 25.40354 31.99538 33239 ft 416 kts 323°
2026-05-04 10:39 25.42911 31.98054 33559 ft 414 kts 323°
2026-05-04 10:40 25.45452 31.96576 33871 ft 412 kts 323°
2026-05-04 10:40 25.48033 31.95074 34153 ft 411 kts 322°
2026-05-04 10:40 25.50556 31.93602 34375 ft 411 kts 322°
2026-05-04 10:40 25.53096 31.92118 34579 ft 411 kts 322°
2026-05-04 10:41 25.55653 31.90622 34761 ft 412 kts 322°
2026-05-04 10:41 25.58174 31.89151 34925 ft 413 kts 322°
2026-05-04 10:41 25.60743 31.87647 35064 ft 414 kts 322°
2026-05-04 10:41 25.63297 31.86154 35222 ft 414 kts 322°
2026-05-04 10:42 25.65844 31.84667 35402 ft 414 kts 322°
2026-05-04 10:42 25.68390 31.83181 35558 ft 414 kts 322°
2026-05-04 10:42 25.70981 31.81665 35669 ft 416 kts 322°
2026-05-04 10:42 25.73578 31.80142 35783 ft 417 kts 322°
2026-05-04 10:43 25.76141 31.78641 35913 ft 417 kts 322°
2026-05-04 10:44 25.95027 31.67543 36066 ft 433 kts 322°
2026-05-04 10:45 25.97725 31.65955 36067 ft 435 kts 322°
2026-05-04 10:45 26.03062 31.62812 36069 ft 437 kts 322°
2026-05-04 10:46 26.08603 31.59547 36071 ft 438 kts 322°
2026-05-04 10:46 26.14278 31.56198 36070 ft 439 kts 322°
2026-05-04 10:47 26.19843 31.52909 36069 ft 438 kts 323°
2026-05-04 10:47 26.25421 31.49610 36080 ft 438 kts 323°
2026-05-04 10:49 26.47460 31.36534 36088 ft 438 kts 323°
2026-05-04 10:50 26.52834 31.33337 36088 ft 437 kts 322°
2026-05-04 10:52 26.74488 31.20418 36093 ft 438 kts 323°
2026-05-04 10:52 26.79931 31.17162 36080 ft 438 kts 322°
2026-05-04 10:54 26.99076 31.06329 36101 ft 449 kts 332°
2026-05-04 10:54 27.02107 31.05350 36100 ft 455 kts 337°
2026-05-04 10:56 27.24977 31.05591 36089 ft 482 kts 356°
2026-05-04 10:56 27.28326 31.05975 36078 ft 481 kts 356°
2026-05-04 10:57 27.34990 31.06725 36082 ft 481 kts 356°
2026-05-04 10:57 27.41692 31.07470 36080 ft 480 kts 356°
2026-05-04 10:58 27.48326 31.08205 36083 ft 480 kts 356°
2026-05-04 10:58 27.55195 31.08966 36092 ft 481 kts 356°
2026-05-04 10:59 27.62006 31.09723 36091 ft 481 kts 356°
2026-05-04 10:59 27.68897 31.10489 36099 ft 482 kts 356°
2026-05-04 11:00 27.75629 31.11241 36104 ft 481 kts 356°
2026-05-04 11:02 28.02474 31.14241 36104 ft 482 kts 356°
2026-05-04 11:05 28.51103 31.19682 29089 ft 458 kts 357°
2026-05-04 11:06 28.54283 31.20046 28653 ft 451 kts 357°
2026-05-04 11:06 28.57350 31.20396 28177 ft 447 kts 357°
2026-05-04 11:06 28.60438 31.20744 27728 ft 441 kts 357°
2026-05-04 11:06 28.63495 31.21089 27262 ft 437 kts 357°
2026-05-04 11:08 28.84160 31.23526 23990 ft 413 kts 357°
2026-05-04 11:10 29.03964 31.25923 20817 ft 395 kts 357°
2026-05-04 11:12 29.23127 31.28250 17474 ft 384 kts 358°
2026-05-04 11:12 29.25809 31.28577 17031 ft 381 kts 358°
2026-05-04 11:12 29.28466 31.28901 16597 ft 378 kts 358°
2026-05-04 11:12 29.31047 31.29216 16183 ft 375 kts 358°
2026-05-04 11:13 29.33645 31.29532 15756 ft 372 kts 358°
2026-05-04 11:13 29.36227 31.29847 15329 ft 369 kts 358°
2026-05-04 11:13 29.38790 31.30229 14896 ft 369 kts
2026-05-04 11:13 29.41305 31.30814 14471 ft 370 kts
2026-05-04 11:14 29.42136 31.31059 14336 ft 370 kts
2026-05-04 11:16 29.65176 31.38960 10439 ft 339 kts 11°
2026-05-04 11:16 29.67415 31.39735 10304 ft 327 kts 11°
2026-05-04 11:16 29.69562 31.40481 10222 ft 313 kts 11°
2026-05-04 11:17 29.71630 31.41198 10139 ft 299 kts 10°
2026-05-04 11:17 29.73598 31.41879 9980 ft 289 kts 10°
2026-05-04 11:19 29.86867 31.46434 7565 ft 275 kts 12°
2026-05-04 11:19 29.88698 31.47067 7233 ft 273 kts 12°
2026-05-04 11:19 29.90513 31.47695 6901 ft 271 kts 12°
2026-05-04 11:19 29.92323 31.48320 6574 ft 269 kts 12°
2026-05-04 11:20 29.94112 31.48939 6247 ft 266 kts 13°
2026-05-04 11:20 29.95888 31.49605 5916 ft 267 kts 20°
2026-05-04 11:20 29.97386 31.50894 5593 ft 274 kts 44°
2026-05-04 11:20 29.98610 31.52585 5276 ft 275 kts 48°
2026-05-04 11:22 30.06597 31.64804 3035 ft 267 kts 49°
2026-05-04 11:22 30.07735 31.66494 2825 ft 264 kts 43°
2026-05-04 11:23 30.09282 31.67563 2599 ft 252 kts
2026-05-04 11:23 30.10978 31.67385 2400 ft 235 kts 335°
2026-05-04 11:24 30.18616 31.61234 1955 ft 219 kts 303°
2026-05-04 11:25 30.19155 31.59619 1968 ft 207 kts 282°
2026-05-04 11:25 30.19368 31.57985 1967 ft 204 kts 278°
2026-05-04 11:25 30.19525 31.56345 1973 ft 204 kts 274°
2026-05-04 11:26 30.18486 31.53597 1975 ft 172 kts 236°
2026-05-04 11:27 30.13738 31.47276 908 ft 138 kts 234°
2026-05-04 11:28 30.13108 31.46435 725 ft 137 kts 234°
2026-05-04 11:28 30.12476 31.45597 548 ft 137 kts 234°
2026-05-04 11:28 30.11857 31.44758 389 ft 131 kts 232°
2026-05-04 11:28 30.11370 31.44099 388 ft 82 kts 229°
2026-05-04 11:29 30.11085 31.43729 388 ft 51 kts 225°
2026-05-04 11:29 30.10911 31.43466 387 ft 29 kts 243°
2026-05-04 11:29 30.10851 31.43255 387 ft 26 kts 253°
2026-05-04 11:29 30.10797 31.43058 387 ft 24 kts 248°
2026-05-04 11:31 30.10124 31.42136 387 ft 18 kts 233°
2026-05-04 11:33 30.09901 31.41504 387 ft 16 kts 261°
2026-05-04 11:33 30.09877 31.41368 387 ft 18 kts 260°
2026-05-04 11:33 30.09852 31.41218 387 ft 19 kts 259°
2026-05-04 11:34 30.09825 31.41053 387 ft 21 kts 260°
2026-05-04 11:34 30.09796 31.40882 387 ft 21 kts 259°
2026-05-04 11:34 30.09822 31.40725 387 ft 20 kts 316°
2026-05-04 11:34 30.09929 31.40616 386 ft 19 kts 320°
2026-05-04 11:35 30.10030 31.40516 386 ft 18 kts 320°
2026-05-04 11:35 30.10125 31.40419 386 ft 17 kts 320°
2026-05-04 11:35 30.10219 31.40328 386 ft 17 kts 321°
2026-05-04 11:35 30.10313 31.40238 386 ft 17 kts 320°
2026-05-04 11:36 30.10397 31.40155 386 ft 4 kts 319°
2026-05-04 11:36 30.10398 31.40153 386 ft 0 kts 319°
2026-05-04 11:37 30.10432 31.40119 386 ft 10 kts 322°
2026-05-04 11:37 30.10497 31.40129 386 ft 10 kts 45°
2026-05-04 11:37 30.10566 31.40217 386 ft 18 kts 49°
2026-05-04 11:37 30.10646 31.40320 386 ft 15 kts 35°
2026-05-04 11:38 30.10708 31.40263 386 ft 14 kts 254°
2026-05-04 11:38 30.10648 31.40172 386 ft 14 kts 230°
2026-05-04 11:38 30.10583 31.40085 386 ft 14 kts 229°
2026-05-04 11:38 30.10518 31.39999 386 ft 14 kts 229°
2026-05-04 11:39 30.10501 31.39901 386 ft 13 kts 301°
2026-05-04 11:39 30.10580 31.39842 386 ft 13 kts 344°
2026-05-04 11:40 30.10746 31.39700 386 ft 0 kts 253°
2026-05-04 11:41 30.10746 31.39698 386 ft 0 kts 253°